Regional Weather Roundup
Issued by NWS Midland/Odessa, TX

Home | Current Version | Previous Version | Text Only | Print | Product List | Glossary On
Versions: 1 2 3 4 5 6 7 8 9 10 11 12 13 14 15 16 17 18 19 20 21 22 23 24 25 26 27 28 29 30 31 32 33 34 35 36 37 38 39 40 41 42 43 44 45 46 47 48 49 50
000
ASUS44 KMAF 271110
RWRMAF
MIDLAND AREA WEATHER ROUNDUP
NATIONAL WEATHER SERVICE MIDLAND TX
500 AM CST MON FEB 27 2017

...IN SOUTHWEST TEXAS AND SOUTHEAST NEW MEXICO...

CITY           SKY/WX    TMP DP  RH WIND       PRES   REMARKS
ALPINE         MOCLDY    45  19  35 SW7       30.02S
ANDREWS        FAIR      40  27  58 W3        29.91S
ARTESIA        CLEAR     34  25  69 CALM      29.91S
BIG SPRING     CLOUDY    50  34  54 W3        29.92R
CARLSBAD       CLOUDY    39  23  52 MISG      29.90S
DRYDEN           N/A     54  47  77 W7        29.90R
FORT STOCKTON  PTCLDY    53  26  35 SW10      29.92S
GUAD PASS      CLOUDY    42  17  36 SW17G25     N/A  WCI  34
HOBBS          CLEAR     36  18  48 CALM      29.92S
MARFA          PTCLDY    37  17  44 CALM      30.00S
MIDLAND AIRPK  CLOUDY    51  31  45 CALM      29.91R
MIDLAND INTL   CLOUDY    50  30  46 S5        29.90S
ODESSA         CLOUDY    51  25  36 W3        29.91S
PECOS          MOCLDY    46  23  39 W6        29.91S
PRESIDIO       FAIR      56  20  25 E7        29.95R
SEMINOLE       CLEAR     38  22  54 CALM      29.91F
SNYDER         CLOUDY    45  29  55 W3        29.89S
WINK           PTCLDY    39  24  55 N8        29.90S WCI  33
$$
...OTHER STATIONS IN TEXAS...

CITY           SKY/WX    TMP DP  RH WIND       PRES   REMARKS
ABILENE        CLOUDY    50  50 100 SE8       29.90S
AMARILLO       CLEAR     30  22  72 SW9       29.87S WCI  22
AUSTIN         CLOUDY    67  65  93 E3        29.92R FOG
BROWNSVILLE    PTCLDY    69  67  93 S7        29.87S
CORPUS CHRISTI MOCLDY    68  67  96 S8        29.88R
DALLAS FTW     CLOUDY    62  59  90 CALM      29.90R
DEL RIO        CLOUDY    57  55  93 S3        29.85S
EL PASO        PTCLDY    44  17  33 SE7       29.94S
HOUSTON INT    CLOUDY    68  66  93 E3        29.95R
LUBBOCK        CLEAR     35  22  58 NW6       29.90S WCI  30
SAN ANGELO     CLOUDY    53  51  93 CALM      29.89F
SAN ANTONIO    CLOUDY    68  63  84 S9        29.92R
WACO           CLOUDY    62  61  96 SE8       29.92R
WICHITA FALLS  NOT AVBL
$$
...OTHER LOCATIONS IN NEW MEXICO...

CITY           SKY/WX    TMP DP  RH WIND       PRES   REMARKS
ALAMAGORDO     CLEAR     45  21  39 SW8       29.95S
ALBUQUERQUE    CLOUDY    32  23  69 E3        29.92F
CANNON AFB     CLEAR     34  23  63 W7        29.89F WCI  28
CLOVIS         CLEAR     28  19  69 W6        29.89F WCI  22
HOLLOMAN AFB   CLEAR     44  20  38 SE9       29.98S WCI  39
ROSWELL        CLEAR     32  23  69 CALM        N/A
RUIDOSO        CLEAR     39  18  41 SW25G31   29.91S WCI  28
SANTA FE       CLOUDY    26  18  71 CALM      29.90S
TRUTH OR CONSE CLEAR     34  23  64 E5        29.91S WCI  30
TUCUMCARI      CLEAR     34  23  64 SW12      29.85S WCI  25
$$



USA.gov is the U.S. government's official web portal to all federal, state and local government web resources and services.